星链-34080 (STARLINK-34080)

导读 | 豆包AI

STARLINK-34080是美国SpaceX公司星链星座的第二代卫星,于2025年5月23日发射入轨,运行在近地低轨道。它属于星链第二代主力组网卫星,标配激光星间链路,支持高速全球卫星互联网服务,可为偏远地区、移动场景提供百兆以上宽带接入,同时具备自主轨道机动与避碰能力,退役后再入大气层可完全烧毁,是星链全球覆盖星座部署的重要组成部分。

基本信息
目录编号:
64116
目录名称:
STARLINK-34080
国际标识:
2025-110W
轨道中心:
EARTH
卫星名称:
星链-34080
卫星全名:
星链-34080 (STARLINK-34080)
卫星状态:
在轨 (已飞行341 天)
发射日期:
2025-05-23 UTC
国别 :
美国 (US)
星等 :
--
轨道信息
数据来源 国际轨道数据 AOE轨道数据
星历时间 2026-04-29T14:00:03+0800
11小时前
查看轨道信息
2026-04-23T08:00:00+0800
6天前
查看轨道信息
半长轴 6848.817km 6853.411km
偏心率 0.0001284 0.0000985
轨道倾角 53.160° 53.162°
近地点辐角 89.812° 55.515°
升交点赤经 151.704° 180.764°
平近点角 11.322° 142.889°
近地点 469.8km 474.598km
远地点 471.56km 475.95km
周期 94.012分钟 94.107分钟
每日圈数 15.317204 15.301804
详细信息
固有亮度:
5
最大亮度:
2.5
卫星平台:
Starlink V1.0
覆盖范围:
全球
运营商:
太空探索技术公司
运营商所在国:
美国
制造商(研发单位):
太空探索技术公司
制造商所在国:
美国
使用方式:
暂无
卫星简介
Starlink 计划是 SpaceX 推出的全球卫星互联网项目,通过发射低轨道卫星,为全球尤其是偏远地区提供高速、低延迟的互联网服务。自 2019 年起,Starlink 已部署数千颗卫星,旨在缩小全球数字鸿沟,推动互联网普及。该项目还为军事、航空等行业提供通信支持,带来广泛经济效益。
2D轨道图
3D轨道图
轨道高度分析图
轨道倾角分析图
轨道综合分析图
查看轨道综合分析图